This demonstration page uses our WeatherBlox Daily Observations layout. Learn more.

Left ArrowRight Arrow

40.92501, -98.34201

Hourly Observations for June 12, 2015

Temp ( °F °C ) Dew Point ( °F °C ) Humidity (%) Winds ( mph kmh ) Pressure ( in mb ) Visibility ( mi km ) Precip ( " mm )
12:53 am 00:53 Cloudy 61 16.1 57 13.9 87 87 N 15 24 29.88 1012 10 16 0.00 0.00
1:53 am 01:53 Cloudy 60 15.6 57 13.9 90 90 N 17 28 29.88 1012 10 16 0.00 0.00
2:53 am 02:53 Cloudy 60 15.6 56 13.3 86 86 N 17 28 29.88 1012 10 16 0.00 0.00
3:53 am 03:53 Cloudy 60 15.6 56 13.3 86 86 N 13 20 29.90 1013 10 16 0.00 0.00
4:53 am 04:53 Cloudy 60 15.6 56 13.3 86 86 N 8 13 29.91 1013 10 16 0.00 0.00
5:53 am 05:53 Cloudy 59 15 56 13.3 90 90 N 8 13 29.91 1013 10 16 0.00 0.00
6:44 am 06:44 Cloudy 61 16 55 13 83 83 N 6 9 29.91 1013 10 16 0.00 0.00
6:53 am 06:53 Cloudy 60 15.6 56 13.3 86 86 N 6 9 29.92 1013 10 16 0.00 0.00
7:03 am 07:03 Cloudy 61 16 55 13 83 83 N 7 11 29.91 1013 10 16 0.00 0.00
7:53 am 07:53 Cloudy 60 15.6 56 13.3 86 86 N 8 13 29.93 1013 10 16 0.00 0.00
8:53 am 08:53 Cloudy 61 16.1 57 13.9 87 87 N 7 11 29.93 1014 10 16 0.00 0.00
9:53 am 09:53 Cloudy 61 16.1 56 13.3 84 84 N 10 17 29.94 1014 10 16 0.00 0.00
10:19 am 10:19 Cloudy 61 16 55 13 83 83 N 10 17 29.91 1013 10 16 0.00 0.00
10:53 am 10:53 Cloudy 61 16.1 57 13.9 87 87 NNE 7 11 29.94 1014 10 16 0.00 0.00
11:41 am 11:41 Cloudy 61 16.1 56 13.3 84 84 NE 7 11 29.91 1013 10 16 0.00 0.00
11:53 am 11:53 Cloudy 62 16.7 56 13.3 80 80 NE 7 11 29.94 1014 10 16 0.00 0.00
12:11 pm 12:11 Cloudy 63 17 55 13 77 77 NNE 8 13 29.88 1012 10 16 0.00 0.00
12:53 pm 12:53 Cloudy 62 16.7 56 13.3 80 80 NE 3 6 29.95 1014 10 16 0.00 0.00
1:53 pm 13:53 Cloudy 62 16.7 56 13.3 80 80 Calm 29.95 1014 10 16 0.00 0.00
2:53 pm 14:53 Cloudy 62 16.7 56 13.3 80 80 Calm 29.94 1014 10 16 0.00 0.00
3:53 pm 15:53 Cloudy 64 17.8 56 13.3 75 75 Calm 29.94 1014 10 16 0.00 0.00
4:53 pm 16:53 Cloudy 64 17.8 56 13.3 75 75 NNW 5 7 29.93 1013 10 16 0.00 0.00
5:53 pm 17:53 Cloudy 64 17.8 56 13.3 75 75 Calm 29.92 1013 10 16 0.00 0.00
6:53 pm 18:53 Cloudy 63 17.2 58 14.4 84 84 Calm 29.90 1013 10 16 0.00 0.00
7:35 pm 19:35 Partly Cloudy 63 17.2 58 14.4 84 84 Calm 29.85 1011 10 16 0.00 0.00
7:53 pm 19:53 Sunny 63 17.2 58 14.4 84 84 Calm 29.90 1012 10 16 0.00 0.00
8:53 pm 20:53 Partly Cloudy 62 16.7 58 14.4 86 86 SE 3 6 29.91 1013 10 16 0.00 0.00
9:53 pm 21:53 Mostly Clear 62 16.7 58 14.4 86 86 SE 3 6 29.92 1013 10 16 0.00 0.00
10:53 pm 22:53 Mostly Clear 61 16.1 58 14.4 90 90 SE 6 9 29.93 1014 10 16 0.00 0.00
11:53 pm 23:53 Cloudy 61 16.1 59 15 93 93 S 3 6 29.93 1014 10 16 0.00 0.00

Powered by AerisWeather